Content
SEND FEEDBACK

Daily
Averages
Monthly
Summary
Mexico

CANCUN, QUINTANA ROO


Home > North America > Mexico > Quintana Roo
Elevation: 9 meters     Latitude: 21 09N     Longitude: 086 49W

WEATHER
 
SELECT A DAY
Number of Records: 166,452;   Date Range: 1/1/95 - 10/24/14
 
SHARE

PRINT THIS DATA

[ ← Previous Day ]
WEATHER ALMANAC - 17 MARCH, 2013
[ Next Day → ]
[ °F ]   °C
Weather ElementAverageHighLow
Temperature25.6 °C28 °C (10:40 am)23 °C (1:44 am)
Dewpoint20.5 °C23 °C (5:46 pm)18 °C (1:44 am)
Humidity73.6 %89 % (5:46 pm)61 % (7:40 am)
Barometer1014.6 hPa1016.3 hPa (7:40 am)1012.9 hPa (4:42 pm)
Wind Speed20.6 km/h29.6 km/h (10:40 am)
Weather ElementAverage
Visibility10.3 km
Wind DirectionSE (134.8 °)

Weather ElementTotal
Precipitation---
Cooling Degree Days7.2 (Base 18.3)
Growing Degree Days15.5 (Base 10)
Averaged from 23 records on 17 March, 2013
WEATHER CONDITIONS BREAKOUT
WIND DIRECTION BREAKOUT
WEATHER BY HOUR - 17 MARCH, 2013
[ °F ]   °C
Local TimeTemperatureDewpointHumidityBarometerVisibilityWind DirectionWind SpeedGust SpeedPrecipitationEventsConditions
1:44 AM23 °C18 °C73 %1015.2 hPa11.3 kmESE (120°)14.8 km/hClear
2:46 AM23 °C18 °C73 %1014.2 hPa11.3 kmSE (130°)11.1 km/hPartly Cloudy
3:45 AM23 °C18 °C73 %1014.9 hPa11.3 kmESE (120°)14.8 km/hScattered Clouds
4:44 AM23 °C18 °C73 %1014.6 hPa11.3 kmESE (120°)14.8 km/hScattered Clouds
5:43 AM23 °C18 °C73 %1014.9 hPa11.3 kmESE (120°)14.8 km/hScattered Clouds
6:42 AM24 °C19 °C73 %1015.6 hPa11.3 kmSE (130°)13 km/hScattered Clouds
7:40 AM26 °C18 °C61 %1016.3 hPa11.3 kmSE (140°)18.5 km/hPartly Cloudy
8:49 AM27 °C20 °C65 %1016.3 hPa11.3 kmSE (140°)20.4 km/hScattered Clouds
9:45 AM27 °C20 °C65 %1015.9 hPa11.3 kmSE (140°)24.1 km/hScattered Clouds
10:40 AM28 °C20 °C62 %1015.9 hPa11.3 kmSSE (160°)29.6 km/hScattered Clouds
11:52 AM27 °C21 °C70 %1014.9 hPa9.7 kmSE (130°)29.6 km/hMostly Cloudy
12:40 PM27 °C21 °C70 %1014.6 hPa9.7 kmSSE (150°)22.2 km/hMostly Cloudy
1:42 PM27 °C22 °C74 %1013.5 hPa9.7 kmSE (140°)27.8 km/hOvercast
2:47 PM27 °C22 °C74 %1013.5 hPa9.7 kmSE (130°)25.9 km/hMostly Cloudy
3:40 PM26 °C22 °C78 %1013.2 hPa9.7 kmSE (140°)18.5 km/hMostly Cloudy
4:42 PM26 °C22 °C78 %1012.9 hPa9.7 kmSE (140°)20.4 km/hOvercast
5:46 PM25 °C23 °C89 %1013.2 hPa9.7 kmSE (130°)14.8 km/hOvercast
6:51 PM26 °C22 °C78 %1013.5 hPa9.7 kmSE (140°)24.1 km/hOvercast
7:42 PM26 °C22 °C78 %1013.5 hPa9.7 kmSE (140°)16.7 km/hOvercast
8:41 PM26 °C22 °C78 %1013.9 hPa9.7 kmSE (140°)29.6 km/hMostly Cloudy
9:49 PM26 °C22 °C78 %1014.2 hPa9.7 kmSE (130°)22.2 km/hOvercast
10:45 PM26 °C22 °C78 %1013.9 hPa9.7 kmSE (130°)22.2 km/hOvercast
11:50 PM26 °C22 °C78 %1013.5 hPa9.7 kmSE (140°)24.1 km/hOvercast
Hourly data recorded from MMUN, located 0 kilometers away from Cancun, Quintana Roo







STORIES FROM OUR PARTNERS